Terminal Aerodrome Forecast
Issued by NWS Portland, OR

Home | Current Version | Previous Version | Text Only | Print | Product List | Glossary On
Versions: 1 2 3 4 5 6 7 8 9 10 11 12 13 14 15 16 17 18 19 20 21 22 23 24 25 26 27 28 29 30 31 32 33 34 35 36 37 38 39 40 41 42
000
FTUS46 KPQR 062014 AAA
TAFSLE
TAF AMD
KSLE 062014Z 0620/0718 36008KT P6SM BKN015 OVC030
     FM062200 36005KT P6SM SCT030
     FM070300 VRB03KT P6SM SKC
     FM070600 VRB03KT 3SM BR SCT003=

USA.gov is the U.S. government's official web portal to all federal, state and local government web resources and services.